星链-31417 (STARLINK-31417 )

导读 | 星芒AI

STARLINK-31417 是 SpaceX Starlink 卫星互联网项目中的一颗低轨卫星,属于第二代 Starlink 卫星星座的一部分。该卫星于2023年发射,旨在为全球用户提供高速、低延迟的宽带互联网服务。它运行在约550公里高度的近地轨道,配备先进通信设备,支持Ka/Ku波段通信,并具备星间链路能力,提升网络覆盖与稳定性。作为 Starlink 计划的重要组成,该卫星助力 SpaceX 实现全球互联网接入目标,尤其服务于偏远地区。

基本信息
目录编号:
59216
目录名称:
STARLINK-31417
国际标识:
2024-046R
轨道中心:
EARTH
卫星名称:
星链-31417
卫星全名:
星链-31417 (STARLINK-31417 )
卫星状态:
在轨 (已飞行600 天)
发射日期:
2024-03-11 UTC
国别 :
美国 (US)
星等 :
--
轨道信息
数据来源 国际轨道数据
星历时间: 2025-11-01T01:55:00+0800
9小时前
查看轨道信息
半长轴: 6853.406km
偏心率: 0.0001211
轨道倾角: 53.160°
近地点辐角 77.692°
升交点赤经 34.559°
平近点角 282.422°
近地点: 474.441km
远地点: 476.101km
周期: 94.106分钟
每日圈数: 15.301821
详细信息
固有亮度:
5
最大亮度:
0.3
卫星平台:
Starlink v2.0 mini
覆盖范围:
全球
运营商:
太空探索技术公司
运营商所在国:
美国
制造商(研发单位):
太空探索技术公司
制造商所在国:
美国
使用方式:
暂无
卫星简介
星链(Starlink)计划是由太空探索技术公司(SpaceX)提出的一个巨型低轨卫星互联网星座项目,计划在2019年至2024年间在太空搭建由约1.2万颗卫星组成的“星链”网络,其中1584颗将部署在地球上空550千米处的近地轨道,并从2020年开始工作。该卫星仍在工作。
2D轨道图
3D轨道图
轨道高度分析图
轨道倾角分析图
轨道综合分析图
查看轨道综合分析图